www.pogodaiklimat.ru

Погода и климат >> Архив погоды >> Россия >> Якутия >> Батамай


ПОГОДА в Батамае

  • Прогноз погоды в Батамае
  • Монитор погоды в Батамае
  • Климат города

АРХИВ ПОГОДЫ в Батамае

Время (UTC), дата Ветер
(напр.,м/с)
 
Видим.   Явления Облачность Т
(С)
Тd
(С)
f
(%)
Тe
(С)
Тes
(С)
Комфортность P
(гПа)
Po
(гПа)
Тmin
(С)
Tmax
(С)
R
(мм)
S
(см)
18 18.03 СЗ 1 50 км 10/0
[Ac trans Cs]
-15.0 -17.7 80 -18 -18 1028.8 1018.0
21 18.03 С 2 50 км 4/0
[Ac trans]
-15.6 -18.3 80 -21 -21 1028.1 1017.3
00 19.03 СВ 2 50 км 10/0
[Cs]
-12.4 -16.7 70 -17 -15 1027.9 1017.3 -16.2 25
03 19.03 СВ 2 20 км слабый снег 10/0
[Cs]
-7.7 -13.2 65 -12 -8 1027.1 1016.5
06 19.03 ЮВ 1 50 км {снег} 10/1 600 м
[Cu hum Ac trans Cs]
-4.8 -10.5 64 -7 -5 1025.7 1015.3
09 19.03 штиль 0 50 км {ливн. осадки} 10/5 600 м
[Cb cap Ac trans Cs]
-6.1 -8.8 81 -7 -7 1025.7 1015.3
12 19.03 штиль 0 20 км слабый снег {ливн. осадки} 10/0
[As op]
-7.4 -8.7 90 -8 -8 1026.2 1015.8 -4.2 0.4
15 19.03 СЗ 1 50 км {снег} 10/0
[As op]
-15.4 -16.7 90 -18 -18 1026.5 1015.8
18 19.03 СЗ 1 50 км {снег} 10/0
[Ac trans Cs]
-12.1 -13.4 90 -14 -14 1026.2 1015.6
21 19.03 СЗ 1 20 км слабый снег 10/0
[Ac trans Cs]
-15.0 -17.0 85 -18 -18 1027.0 1016.2
00 20.03 штиль 0 10 км слабый снег 10/3 600 м
[Cb cap Ac trans Cs]
-13.3 -15.3 85 -13 -12 1027.7 1016.9 -15.8 0.2 26
03 20.03 ЮЗ 1 50 км {снег} 3/0
[Ac trans]
-11.4 -14.9 75 -14 -9 1027.1 1016.5
06 20.03 ЮЗ 2 50 км {снег} ясно -7.0 -12.7 64 -11 -8 1025.6 1015.2
09 20.03 ЮВ 1 50 км 4/0
[Ac trans Ci fib]
-7.7 -13.2 65 -10 -10 1025.0 1014.5
12 20.03 штиль 0 50 км 3/0
[Ci fib]
-15.1 -16.4 90 -15 -15 1024.3 1013.6 -7.0 0.0
15 20.03 штиль 0 50 км 3/0
[Ci fib]
-19.6 -21.5 85 -20 -20 1022.7 1011.8
18 20.03 штиль 0 50 км 3/0
[Ci fib]
-22.9 -25.5 79 -23 -23 1022.7 1011.6
21 20.03 штиль 0 50 км ясно -25.3 -27.8 80 -25 -25 1022.8 1011.7
00 21.03 ЮЗ 1 50 км ясно -19.2 -22.5 75 -22 -20 1022.4 1011.5 -26.5 22
03 21.03 ЮЗ 1 50 км ясно -10.0 -15.3 65 -12 -7 1021.4 1010.9
06 21.03 ЮЗ 2 50 км ясно -1.9 -9.4 56 -5 -2 1020.0 1009.9
09 21.03 З 2 50 км 4/0
[Ci fib]
-5.2 -9.7 71 -9 -9 1019.6 1009.3
12 21.03 ЮЗ 1 50 км 1/0
[Ci fib]
-10.1 -12.8 81 -12 -12 1019.9 1009.4 -1.9
15 21.03 ЮЗ 1 50 км ясно -12.7 -14.0 90 -15 -15 1019.3 1008.6
18 21.03 З 1 50 км ясно -17.6 -18.8 90 -20 -20 1019.4 1008.5
21 21.03 штиль 0 50 км 3/0
[Ac trans]
-22.2 -24.1 84 -22 -22 1019.1 1008.2
00 22.03 С 1 50 км 3/0
[Ac trans Ci fib]
-15.3 -16.6 90 -18 -16 1019.7 1009.0 -23.2 25
03 22.03 ЮЗ 1 50 км 1/0
[Ci fib]
-11.6 -14.4 80 -14 -8 1020.2 1009.7
06 22.03 ЮЗ 2 50 км ясно -6.9 -11.6 69 -11 -8 1020.0 1009.7
09 22.03 ЮЗ 1 50 км 1/0
[Ci fib]
-3.7 -12.9 49 -5 -5 1020.6 1010.3
12 22.03 В 1 50 км 1/0
[Ci fib]
-13.1 -15.1 85 -15 -15 1021.6 1010.9 -2.0
15 22.03 С 1 50 км ясно -18.3 -20.2 85 -21 -21 1022.2 1011.3
18 22.03 С 2 50 км ясно -21.6 -23.4 85 -28 -28 1022.9 1012.0
21 22.03 СЗ 1 50 км 1/0
[Ci fib]
-23.5 -26.0 80 -27 -27 1023.8 1012.7
00 23.03 ЮЗ 1 50 км 1/0
[Ci fib]
-16.9 -21.9 65 -20 -17 1024.2 1013.5 -24.2 25
03 23.03 Ю 1 50 км 3/0
[Ci fib]
-11.1 -15.5 70 -13 -8 1023.7 1013.2
06 23.03 ЮЗ 1 50 км 5/0
[Ci fib]
-4.3 -11.7 56 -6 -3 1022.6 1012.3
09 23.03 ЮЗ 1 50 км 10/0
[Cs]
-7.0 -12.2 66 -9 -9 1022.3 1012.0
12 23.03 ЮЗ 1 50 км 10/0
[Cs]
-12.6 -13.8 91 -15 -15 1022.4 1011.7 -3.8
15 23.03 штиль 0 50 км 10/0
[Cs]
-18.1 -20.0 85 -18 -18 1022.2 1011.3
18 23.03 штиль 0 50 км 3/0
[Ci fib]
-21.5 -23.3 85 -22 -22 1021.8 1010.9
21 23.03 С 1 50 км 3/0
[Ac trans]
-24.0 -26.5 80 -27 -27 1021.4 1010.3
00 24.03 СВ 1 50 км 3/0
[Ac trans]
-16.0 -18.7 80 -19 -16 1021.5 1010.8 -24.0 25
03 24.03 Ю 1 50 км 4/0
[Ac trans Ci fib]
-13.9 -17.4 75 -16 -11 1020.8 1010.1
06 24.03 Ю 1 50 км 3/0
[Ac trans Ci fib]
-11.1 -14.7 75 -13 -10 1020.1 1009.6
09 24.03 штиль 0 50 км ясно -11.7 -17.0 65 -12 -12 1018.9 1008.4
12 24.03 штиль 0 50 км ясно -12.6 -14.6 85 -13 -13 1019.6 1008.9 -11.1
15 24.03 СЗ 1 50 км ясно -18.7 -20.6 85 -22 -22 1020.0 1009.1
18 24.03 СЗ 1 50 км ясно -22.1 -24.0 84 -25 -25 1020.0 1009.1
21 24.03 С 1 50 км 1/0
[Ci fib]
-24.4 -26.9 80 -28 -28 1020.6 1009.5
00 25.03 СВ 1 50 км 10/0
[Ac trans Cs]
-13.1 -22.9 44 -15 -13 1020.6 1009.9 -24.4 24
03 25.03 СВ 1 50 км 10/0
[Ac trans Cs]
-13.1 -15.8 80 -15 -11 1020.6 1009.9 -24.4 24
06 25.03 ЮЗ 1 50 км 9/4 1000 м
[Sc Ac trans]
-4.8 -9.6 69 -7 -6 1019.3 1009.0
09 25.03 В 1 50 км 4/0
[Ac trans]
-3.8 -10.0 62 -6 -5 1019.0 1008.7
12 25.03 В 1 50 км 4/0
[Ac trans]
-11.6 -12.9 90 -14 -14 1019.5 1009.0 -2.3

 

Местоположение метеостанции Батамай (Якутия, Россия): широта 63.52 долгота 129.40 высота над уровнем моря 79 м.

В архиве по умолчанию представлена погода в Батамае за последнюю неделю. Архивные данные за месяц целиком и за предыдущие месяцы, начиная с января 2011 года, Вы можете получить, выбрав интересующий диапазон дат из раскрывающегося списка и нажав кнопку "Ввод!".

Внимание! Время в таблицах - всемирное. Для получения местного времени необходимо прибавить поправку, которая в Батамае равна 9 ч.

Смотрите также архив погоды в соседних городах и на ближайших метеорологических станциях:

Погода в Сеген-Кюели (Якутия, Россия) (69 км)
Погода в Намцах (Якутия, Россия) (90 км)
Погода в Сангаре (Якутия, Россия) (109 км)
Погода в Верхоянском Перевозе (Якутия, Россия) (131 км)
Погода в Якутске (Якутия, Россия) (169 км)
Погода в Сого-Хае (Якутия, Россия) (169 км)
Погода в Бердигестяхе (Якутия, Россия) (185 км)
Погода в Себян-Кюеле (Якутия, Россия) (200 км)
Погода в Покровске (Якутия, Россия) (227 км)
Погода в Хатырык-Хомо (Якутия, Россия) (231 км)

Пояснения к столбцам:

Ветер - указаны скорость ветра в м/с - средняя за 10 мин, порывы в срок и между сроками (в фигурных скобках) и направление, откуда дует ветер: С - северный, СВ - северо-восточный, В - восточный, ЮВ - юго-восточный, Ю - южный, ЮЗ - юго-западный, З - западный, СЗ - северо-западный.
Видимость - горизонтальная дальность видимости в метрах или километрах. При видимости от 1 до 10 км при отсутствии осадков обычно наблюдается дымка, при ухудшении видимости до 1 км и менее - туман. В сухую погоду видимость может ухудшаться дымом, пылью или мглою.
Явления - указаны атмосферные явления, наблюдавшиеся в срок или в последний час перед сроком; фигурными скобками обозначены явления, наблюдавшиеся между сроками (за 1-3 часа до срока); квадратными скобками обозначены град или гололедные отложения с указанием их диаметра в мм.
Облачность - указаны через наклонную черту общая и нижняя облачность в баллах и высота нижней границы облаков в метрах; квадратными скобками обозначены формы облаков: Ci - перистые, Cs - перисто-слоистые, Cc - перисто-кучевые, Ac - высококучевые, As - высокослоистые, Sc - слоисто-кучевые, Ns - слоисто-дождевые, Cu - кучевые, Cb - кучево-дождевые. Подробнее классификацию облаков см. в Атласе облаков (PDF).
T - Температура воздуха - температура, измеренная на высоте 2 м над землей.
Td - Температура точки росы - температура, при понижении до которой содержащийся в воздухе водяной пар достигнет насыщения.
f - Относительная влажность воздуха - влажноcть воздуха, измеренная на высоте 2 м над землей.
Te - Эффективная температура - температура, которую ощущает одетый по сезону человек в тени. Характеристика душности погоды. При расчете учитывается влияние влажности воздуха и скорости ветра на теплоощущения человека.
Tes - Эффективная температура на солнце - температура, которую ощущает человек, с поправкой на солнечный нагрев. Характеристика знойности погоды. Зависит от высоты солнца над горизонтом, облачности и скорости ветра. Ночью, в пасмурную погоду, а также при ветре 12 м/с и более поправка равна нулю.
P - Атмосферное давление - приведенное к уровню моря атмосферное давление.
Po - Атмосферное давление - измеренное на уровне метеостанции атмосферное давление.
Tmin - Минимальная температура - минимум температуры воздуха на высоте 2 м над землей.
Tmax - Максимальная температура - максимум температуры воздуха на высоте 2 м над землей.
R - Количество осадков - Количество выпавших осадков, мм. При наведении курсора мыши на число - период времени, за который выпало указанное количество осадков.
S - Снежный покров - Высота снежного покрова, см. При наведении курсора мыши на число - состояние снежного покрова и степень покрытия местности в баллах.